Time,TemperatureF,DewpointF,PressureIn,WindDirection,WindDirectionDegrees,WindSpeedMPH,WindSpeedGustMPH,Humidity,HourlyPrecipIn,Conditions,Clouds,dailyrainin,SoftwareType,DateUTC
2013-08-22 00:03:00,51.0,51.0,-100.00,NE,52,5.0,6.0,100,0.06,,,-99.99,,2013-08-22 08:03:00,
2013-08-22 00:12:00,51.0,51.0,-100.00,NE,52,5.0,6.0,100,0.06,,,-99.99,,2013-08-22 08:12:00,
2013-08-22 00:22:00,51.0,51.0,-100.00,NE,52,5.0,6.0,100,0.06,,,-99.99,,2013-08-22 08:22:00,
2013-08-22 00:30:00,51.0,51.0,-100.00,NE,55,5.0,6.0,100,0.00,,,-99.99,,2013-08-22 08:30:00,
2013-08-22 00:53:00,51.0,51.0,-100.00,NE,55,5.0,6.0,100,0.00,,,-99.99,,2013-08-22 08:53:00,
2013-08-22 01:01:00,51.0,51.0,-100.00,NE,55,5.0,6.0,100,0.00,,,-99.99,,2013-08-22 09:01:00,
2013-08-22 01:11:00,51.0,51.0,-100.00,NE,55,5.0,6.0,100,0.00,,,-99.99,,2013-08-22 09:11:00,
2013-08-22 01:22:00,51.0,51.0,-100.00,NE,55,5.0,6.0,100,0.00,,,-99.99,,2013-08-22 09:22:00,
2013-08-22 01:30:00,51.0,51.0,-100.00,ENE,65,7.0,8.0,100,0.01,,,-99.99,,2013-08-22 09:30:00,
2013-08-22 01:54:00,51.0,51.0,-100.00,ENE,65,7.0,8.0,100,0.01,,,-99.99,,2013-08-22 09:54:00,
2013-08-22 02:03:00,51.0,51.0,-100.00,ENE,65,7.0,8.0,100,0.01,,,-99.99,,2013-08-22 10:03:00,
2013-08-22 02:12:00,51.0,51.0,-100.00,ENE,65,7.0,8.0,100,0.01,,,-99.99,,2013-08-22 10:12:00,
2013-08-22 02:22:00,51.0,51.0,-100.00,ENE,65,7.0,8.0,100,0.01,,,-99.99,,2013-08-22 10:22:00,
2013-08-22 02:30:00,51.0,51.0,-100.00,East,79,6.0,7.0,100,0.00,,,-99.99,,2013-08-22 10:30:00,
2013-08-22 03:30:00,51.0,51.0,-100.00,East,86,4.0,5.0,100,0.00,,,-99.99,,2013-08-22 11:30:00,
2013-08-22 04:30:00,51.0,50.0,-100.00,ENE,67,3.0,3.0,99,0.00,,,-99.99,,2013-08-22 12:30:00,
2013-08-22 04:52:00,51.0,50.0,-100.00,ENE,67,3.0,3.0,99,0.00,,,-99.99,,2013-08-22 12:52:00,
2013-08-22 05:02:00,51.0,50.0,-100.00,ENE,67,3.0,3.0,99,0.00,,,-99.99,,2013-08-22 13:02:00,
2013-08-22 05:12:00,51.0,50.0,-100.00,ENE,67,3.0,3.0,99,0.00,,,-99.99,,2013-08-22 13:12:00,
2013-08-22 05:22:00,51.0,50.0,-100.00,ENE,67,3.0,3.0,99,0.00,,,-99.99,,2013-08-22 13:22:00,
2013-08-22 05:30:00,50.0,50.0,-100.00,NE,47,2.0,3.0,99,0.03,,,-99.99,,2013-08-22 13:30:00,
2013-08-22 05:52:00,50.0,50.0,-100.00,NE,47,2.0,3.0,99,0.03,,,-99.99,,2013-08-22 13:52:00,
2013-08-22 06:01:00,50.0,50.0,-100.00,NE,47,2.0,3.0,99,0.03,,,-99.99,,2013-08-22 14:01:00,
2013-08-22 06:11:00,50.0,50.0,-100.00,NE,47,2.0,3.0,99,0.03,,,-99.99,,2013-08-22 14:11:00,
2013-08-22 06:22:00,50.0,50.0,-100.00,NE,47,2.0,3.0,99,0.03,,,-99.99,,2013-08-22 14:22:00,
2013-08-22 06:30:00,50.0,50.0,-100.00,North,11,3.0,4.0,99,0.00,,,-99.99,,2013-08-22 14:30:00,
2013-08-22 06:52:00,50.0,50.0,-100.00,North,11,3.0,4.0,99,0.00,,,-99.99,,2013-08-22 14:52:00,
2013-08-22 07:02:00,50.0,50.0,-100.00,North,11,3.0,4.0,99,0.00,,,-99.99,,2013-08-22 15:02:00,
2013-08-22 07:11:00,50.0,50.0,-100.00,North,11,3.0,4.0,99,0.00,,,-99.99,,2013-08-22 15:11:00,
2013-08-22 07:22:00,50.0,50.0,-100.00,North,11,3.0,4.0,99,0.00,,,-99.99,,2013-08-22 15:22:00,
2013-08-22 07:30:00,50.0,50.0,-100.00,ENE,57,2.0,3.0,99,0.00,,,-99.99,,2013-08-22 15:30:00,
2013-08-22 07:55:00,50.0,50.0,-100.00,ENE,57,2.0,3.0,99,0.00,,,-99.99,,2013-08-22 15:55:00,
2013-08-22 08:05:00,50.0,50.0,-100.00,ENE,57,2.0,3.0,99,0.00,,,-99.99,,2013-08-22 16:05:00,
2013-08-22 08:14:00,50.0,50.0,-100.00,ENE,57,2.0,3.0,99,0.00,,,-99.99,,2013-08-22 16:14:00,
2013-08-22 08:24:00,50.0,50.0,-100.00,ENE,57,2.0,3.0,99,0.00,,,-99.99,,2013-08-22 16:24:00,
2013-08-22 08:30:00,51.0,50.0,-100.00,SE,128,1.0,2.0,99,0.00,,,-99.99,,2013-08-22 16:30:00,
2013-08-22 08:54:00,51.0,50.0,-100.00,SE,128,1.0,2.0,99,0.00,,,-99.99,,2013-08-22 16:54:00,
2013-08-22 09:02:00,51.0,50.0,-100.00,SE,128,1.0,2.0,99,0.00,,,-99.99,,2013-08-22 17:02:00,
2013-08-22 09:12:00,51.0,50.0,-100.00,SE,128,1.0,2.0,99,0.00,,,-99.99,,2013-08-22 17:12:00,
2013-08-22 09:23:00,51.0,50.0,-100.00,SE,128,1.0,2.0,99,0.00,,,-99.99,,2013-08-22 17:23:00,
2013-08-22 09:30:00,50.0,50.0,-100.00,NNE,22,4.0,4.0,99,0.02,,,-99.99,,2013-08-22 17:30:00,
2013-08-22 09:53:00,50.0,50.0,-100.00,NNE,22,4.0,4.0,99,0.02,,,-99.99,,2013-08-22 17:53:00,
2013-08-22 10:02:00,50.0,50.0,-100.00,NNE,22,4.0,4.0,99,0.02,,,-99.99,,2013-08-22 18:02:00,
2013-08-22 10:12:00,50.0,50.0,-100.00,NNE,22,4.0,4.0,99,0.02,,,-99.99,,2013-08-22 18:12:00,
2013-08-22 10:21:00,50.0,50.0,-100.00,NNE,22,4.0,4.0,99,0.02,,,-99.99,,2013-08-22 18:21:00,
2013-08-22 10:30:00,50.0,50.0,-100.00,NNE,13,4.0,4.0,99,0.02,,,-99.99,,2013-08-22 18:30:00,
2013-08-22 10:52:00,50.0,50.0,-100.00,NNE,13,4.0,4.0,99,0.02,,,-99.99,,2013-08-22 18:52:00,
2013-08-22 11:02:00,50.0,50.0,-100.00,NNE,13,4.0,4.0,99,0.02,,,-99.99,,2013-08-22 19:02:00,
2013-08-22 11:11:00,50.0,50.0,-100.00,NNE,13,4.0,4.0,99,0.02,,,-99.99,,2013-08-22 19:11:00,
2013-08-22 11:22:00,50.0,50.0,-100.00,NNE,13,4.0,4.0,99,0.02,,,-99.99,,2013-08-22 19:22:00,
2013-08-22 11:30:00,51.0,50.0,-100.00,NE,50,2.0,3.0,99,0.01,,,-99.99,,2013-08-22 19:30:00,
2013-08-22 11:53:00,51.0,50.0,-100.00,NE,50,2.0,3.0,99,0.01,,,-99.99,,2013-08-22 19:53:00,
2013-08-22 12:02:00,51.0,50.0,-100.00,NE,50,2.0,3.0,99,0.01,,,-99.99,,2013-08-22 20:02:00,
2013-08-22 12:11:00,51.0,50.0,-100.00,NE,50,2.0,3.0,99,0.01,,,-99.99,,2013-08-22 20:11:00,
2013-08-22 12:23:00,51.0,50.0,-100.00,NE,50,2.0,3.0,99,0.01,,,-99.99,,2013-08-22 20:23:00,
2013-08-22 12:30:00,51.0,51.0,-100.00,NE,45,2.0,3.0,99,0.03,,,-99.99,,2013-08-22 20:30:00,
2013-08-22 12:52:00,51.0,51.0,-100.00,NE,45,2.0,3.0,99,0.03,,,-99.99,,2013-08-22 20:52:00,
2013-08-22 13:02:00,51.0,51.0,-100.00,NE,45,2.0,3.0,99,0.03,,,-99.99,,2013-08-22 21:02:00,
2013-08-22 13:13:00,51.0,51.0,-100.00,NE,45,2.0,3.0,99,0.03,,,-99.99,,2013-08-22 21:13:00,
2013-08-22 13:22:00,51.0,51.0,-100.00,NE,45,2.0,3.0,99,0.03,,,-99.99,,2013-08-22 21:22:00,
2013-08-22 13:30:00,52.0,51.0,-100.00,NNW,336,3.0,4.0,99,0.00,,,-99.99,,2013-08-22 21:30:00,
2013-08-22 13:54:00,52.0,51.0,-100.00,NNW,336,3.0,4.0,99,0.00,,,-99.99,,2013-08-22 21:54:00,
2013-08-22 14:05:00,52.0,51.0,-100.00,NNW,336,3.0,4.0,99,0.00,,,-99.99,,2013-08-22 22:05:00,
2013-08-22 14:13:00,52.0,51.0,-100.00,NNW,336,3.0,4.0,99,0.00,,,-99.99,,2013-08-22 22:13:00,
2013-08-22 14:24:00,52.0,51.0,-100.00,NNW,336,3.0,4.0,99,0.00,,,-99.99,,2013-08-22 22:24:00,
2013-08-22 14:30:00,52.0,52.0,-100.00,WSW,244,4.0,6.0,99,0.00,,,-99.99,,2013-08-22 22:30:00,
2013-08-22 15:11:00,52.0,52.0,-100.00,WSW,244,4.0,6.0,99,0.00,,,-99.99,,2013-08-22 23:11:00,
2013-08-22 15:22:00,52.0,52.0,-100.00,WSW,244,4.0,6.0,99,0.00,,,-99.99,,2013-08-22 23:22:00,
2013-08-22 15:30:00,52.0,51.0,-100.00,WNW,288,7.0,10.0,97,0.00,,,-99.99,,2013-08-22 23:30:00,
2013-08-22 15:53:00,52.0,51.0,-100.00,WNW,288,7.0,10.0,97,0.00,,,-99.99,,2013-08-22 23:53:00,
2013-08-22 16:02:00,52.0,51.0,-100.00,WNW,288,7.0,10.0,97,0.00,,,-99.99,,2013-08-23 00:02:00,
2013-08-22 16:12:00,52.0,51.0,-100.00,WNW,288,7.0,10.0,97,0.00,,,-99.99,,2013-08-23 00:12:00,
2013-08-22 16:23:00,52.0,51.0,-100.00,WNW,288,7.0,10.0,97,0.00,,,-99.99,,2013-08-23 00:23:00,
2013-08-22 17:30:00,52.0,51.0,-100.00,WSW,247,6.0,9.0,96,0.00,,,-99.99,,2013-08-23 01:30:00,
2013-08-22 17:52:00,52.0,51.0,-100.00,WSW,247,6.0,9.0,96,0.00,,,-99.99,,2013-08-23 01:52:00,
2013-08-22 18:02:00,52.0,51.0,-100.00,WSW,247,6.0,9.0,96,0.00,,,-99.99,,2013-08-23 02:02:00,
2013-08-22 18:11:00,52.0,51.0,-100.00,WSW,247,6.0,9.0,96,0.00,,,-99.99,,2013-08-23 02:11:00,
2013-08-22 18:22:00,52.0,51.0,-100.00,WSW,247,6.0,9.0,96,0.00,,,-99.99,,2013-08-23 02:22:00,
2013-08-22 18:30:00,52.0,51.0,-100.00,SW,223,4.0,7.0,96,0.00,,,-99.99,,2013-08-23 02:30:00,
2013-08-22 18:52:00,52.0,51.0,-100.00,SW,223,4.0,7.0,96,0.00,,,-99.99,,2013-08-23 02:52:00,
2013-08-22 19:02:00,52.0,51.0,-100.00,SW,223,4.0,7.0,96,0.00,,,-99.99,,2013-08-23 03:02:00,
2013-08-22 19:12:00,52.0,51.0,-100.00,SW,223,4.0,7.0,96,0.00,,,-99.99,,2013-08-23 03:12:00,
2013-08-22 19:22:00,52.0,51.0,-100.00,SW,223,4.0,7.0,96,0.00,,,-99.99,,2013-08-23 03:22:00,
2013-08-22 19:30:00,51.0,50.0,-100.00,NE,51,3.0,4.0,98,0.01,,,-99.99,,2013-08-23 03:30:00,
2013-08-22 19:55:00,51.0,50.0,-100.00,NE,51,3.0,4.0,98,0.01,,,-99.99,,2013-08-23 03:55:00,
2013-08-22 20:04:00,51.0,50.0,-100.00,NE,51,3.0,4.0,98,0.01,,,-99.99,,2013-08-23 04:04:00,
2013-08-22 20:13:00,51.0,50.0,-100.00,NE,51,3.0,4.0,98,0.01,,,-99.99,,2013-08-23 04:13:00,
2013-08-22 20:24:00,51.0,50.0,-100.00,NE,51,3.0,4.0,98,0.01,,,-99.99,,2013-08-23 04:24:00,
2013-08-22 20:30:00,51.0,50.0,-100.00,NNW,344,3.0,4.0,99,0.00,,,-99.99,,2013-08-23 04:30:00,
2013-08-22 20:54:00,51.0,50.0,-100.00,NNW,344,3.0,4.0,99,0.00,,,-99.99,,2013-08-23 04:54:00,
2013-08-22 21:03:00,51.0,50.0,-100.00,NNW,344,3.0,4.0,99,0.00,,,-99.99,,2013-08-23 05:03:00,
2013-08-22 21:13:00,51.0,50.0,-100.00,NNW,344,3.0,4.0,99,0.00,,,-99.99,,2013-08-23 05:13:00,
2013-08-22 21:22:00,51.0,50.0,-100.00,NNW,344,3.0,4.0,99,0.00,,,-99.99,,2013-08-23 05:22:00,
2013-08-22 21:30:00,50.0,50.0,-100.00,East,84,7.0,9.0,99,0.00,,,-99.99,,2013-08-23 05:30:00,
2013-08-22 21:52:00,50.0,50.0,-100.00,East,84,7.0,9.0,99,0.00,,,-99.99,,2013-08-23 05:52:00,
2013-08-22 22:02:00,50.0,50.0,-100.00,East,84,7.0,9.0,99,0.00,,,-99.99,,2013-08-23 06:02:00,
2013-08-22 22:12:00,50.0,50.0,-100.00,East,84,7.0,9.0,99,0.00,,,-99.99,,2013-08-23 06:12:00,
2013-08-22 22:21:00,50.0,50.0,-100.00,East,84,7.0,9.0,99,0.00,,,-99.99,,2013-08-23 06:21:00,
2013-08-22 22:30:00,51.0,51.0,-100.00,ENE,68,6.0,7.0,100,0.00,,,-99.99,,2013-08-23 06:30:00,
2013-08-22 22:52:00,51.0,51.0,-100.00,ENE,68,6.0,7.0,100,0.00,,,-99.99,,2013-08-23 06:52:00,
2013-08-22 23:01:00,51.0,51.0,-100.00,ENE,68,6.0,7.0,100,0.00,,,-99.99,,2013-08-23 07:01:00,
2013-08-22 23:12:00,51.0,51.0,-100.00,ENE,68,6.0,7.0,100,0.00,,,-99.99,,2013-08-23 07:12:00,
2013-08-22 23:22:00,51.0,51.0,-100.00,ENE,68,6.0,7.0,100,0.00,,,-99.99,,2013-08-23 07:22:00,
2013-08-22 23:30:00,51.0,50.0,-100.00,ENE,73,7.0,8.0,98,0.00,,,-99.99,,2013-08-23 07:30:00,
2013-08-22 23:52:00,51.0,50.0,-100.00,ENE,73,7.0,8.0,98,0.00,,,-99.99,,2013-08-23 07:52:00,